484  
NZUS99 KIND 191109  
HRRIND  
 
WEATHER ROUNDUP FOR INDIANA AND SURROUNDING STATES  
NATIONAL WEATHER SERVICE INDIANAPOLIS IN  
700 AM EDT SUN MAY 19 2019  
   
..INDIANA
 
 
 
CITY SKY/WX TMP DP RH WIND PRES REMARKS  
INDIANAPOLIS CLOUDY 71 62 73 S13 29.75F  
EAGLE CREEK CLOUDY 71 61 70 S7 29.74F  
ZIONSVILLE MOCLDY 68 64 85 S14G20 29.75F  
FISHERS MOCLDY 68 66 94 S8 29.76S  
ANDERSON FAIR 71 63 75 S13 29.77F  
MOUNT COMFORT MOCLDY 68 66 94 S8 29.77F  
GREENWOOD MOCLDY 68 63 83 S5 29.78S  
SHELBYVILLE CLOUDY 73 62 68 S13 29.76F  

 
 
CITY SKY/WX TMP DP RH WIND PRES REMARKS  
LAFAYETTE FAIR 69 62 78 S10G20 29.69F  
KOKOMO LGT RAIN 69 63 81 S14 29.74F  
FRANKFORT MOCLDY 71 62 74 MISG 29.73F  
CRAWFORDSVILLE CLOUDY 68 63 83 S17G25 29.73R  
MUNCIE FAIR 74 62 66 S14 29.76F  
GREENCASTLE CLOUDY 66 61 82 S8 29.76S  
TERRE HAUTE MOCLDY 68 63 84 S14G22 29.74R  
BLOOMINGTON MOCLDY 69 63 81 S6 29.77S  
COLUMBUS PTCLDY 70 59 68 S12 29.78  
NORTH VERNON FAIR 70 61 73 S9G16 29.80F  

 
 
CITY SKY/WX TMP DP RH WIND PRES REMARKS  
GARY LGT RAIN 70 64 83 S12G26 29.65S  
VALPARAISO LGT RAIN 67 62 84 S12 29.69S  
LA PORTE LGT RAIN 65 63 91 S6 29.71S  
MICHIGAN CITY RAIN 64 61 88 S10G22 29.70R  
SOUTH BEND LGT RAIN 68 61 78 S14G21 29.70R  
GOSHEN LGT RAIN 70 61 73 S15 29.71S  
ANGOLA FAIR 66 61 82 S9 29.74S  
AUBURN FAIR 68 63 83 CALM 29.76S  
RENSSELAER CLOUDY 66 63 88 S6 29.69F  
KNOX CLOUDY 64 61 88 SE13 29.70S  
PLYMOUTH MOCLDY 66 66 100 S6 29.71S  
ROCHESTER DRIZZLE 70 63 78 S9 29.72S  
WARSAW CLOUDY 70 61 73 SW7 29.73R  
FORT WAYNE MOCLDY 71 62 73 S13 29.75F  
MONTICELLO CLOUDY 69 61 75 S12 29.69F  
PERU/GRISSOM LGT RAIN 69 67 94 S13 29.71F  
HUNTINGTON FAIR 71 61 70 S9 29.74F  
MARION FAIR 70 65 83 S13 29.76S  
PORTLAND FAIR 70 57 64 S9G18 29.78S  
RICHMOND FAIR 64 64 100 S12 29.84S  
WASHINGTON CLOUDY 71 62 73 S20G25 29.77R  
FRENCH LICK CLOUDY 70 61 73 S7 29.81R  
MADISON FAIR 70 64 83 S9 29.85F  
HUNTINGBURG CLOUDY 71 64 78 S12 29.80R  
JEFFERSONVILLE FAIR 74 62 67 S9G17 29.82F  
EVANSVILLE CLOUDY 69 65 86 S13G23 29.78R  

 
   
..ILLINOIS
 
 
 
CITY SKY/WX TMP DP RH WIND PRES REMARKS  
CHICAGO MOCLDY 54 53 97 CALM 29.61F FOG  
MOLINE LGT RAIN 65 61 87 SW7 29.55F  
ROCKFORD MOCLDY 61 59 93 S7 29.58F  
KANKAKEE CLOUDY 68 62 80 S10G17 29.67R  
PEORIA CLOUDY 66 59 78 SW15G24 29.62S  
BLOOMINGTON LGT RAIN 67 60 78 S23G29 29.65F  
CHAMPAIGN FAIR 67 61 81 S15 29.69S  
RANTOUL FAIR 67 62 82 S13G23 29.69S  
DANVILLE FAIR 68 63 85 S13 29.69R  
QUINCY CLOUDY 63 60 90 S8 29.58F  
SPRINGFIELD CLOUDY 66 61 84 S21G31 29.65S  
DECATUR CLOUDY 66 60 81 S15 29.68S  
MATTOON CLOUDY 68 61 78 S14G30 29.70S  
PARIS FAIR 68 64 87 S18G25 29.73R  
EFFINGHAM CLOUDY 67 62 84 SE8G17 29.73F  
ROBINSON MOCLDY 66 64 94 S15 29.76R  
OLNEY CLOUDY 65 65 100 S8 29.75S  
LAWRENCEVILLE MOCLDY 68 64 87 S15 29.76R  
MOUNT VERNON MOCLDY 66 63 90 S8 29.74S  
FAIRFIELD CLOUDY 66 65 98 S8 29.75R  
MOUNT CARMEL FAIR 67 65 93 S17 29.75S  
CARMI CLOUDY 64 64 100 S12 29.77R  

 
   
..KENTUCKY
 
 
 
CITY SKY/WX TMP DP RH WIND PRES REMARKS  
LOUISVILLE CLOUDY 74 62 66 S14 29.83F  
PADUCAH CLOUDY 65 62 90 SW7 29.81R  
OWENSBORO CLOUDY 70 65 84 S14 29.80R  
FORT KNOX MOCLDY 72 62 71 S13 29.85F  
LEXINGTON FAIR 70 60 70 S12 29.91F  
BOWLING GREEN MOCLDY 72 61 68 S8 29.86F  
JACKSON FAIR 67 61 81 CALM 29.99R  

 
   
..OHIO
 
 
 
CITY SKY/WX TMP DP RH WIND PRES REMARKS  
CINCINNATI MOCLDY 71 62 73 S14 29.86S  
DAYTON FAIR 71 61 70 S13 29.85F  
TOLEDO FAIR 68 62 81 S5 29.78F  
DEFIANCE FAIR 71 63 75 S9G20 29.77F  
FINDLAY FAIR 71 63 75 S14 29.81S  
LIMA FAIR 70 62 76 S14 29.82S  
WRIGHT-PAT AFB FAIR 70 62 77 S12 29.85F  
COLUMBUS FAIR 69 61 75 S7 29.88S  
CLEVELAND FAIR 72 62 71 S10 29.87S  

 
   
..MICHIGAN
 
 
 
CITY SKY/WX TMP DP RH WIND PRES REMARKS  
DETROIT MOCLDY 58 53 84 CALM 29.79F  
GRAND RAPIDS CLOUDY 63 58 83 SE5 29.69F  
LANSING FAIR 62 59 90 SE8 29.74F  
KALAMAZOO CLOUDY 68 60 75 S8 29.71F  
BATTLE CREEK FAIR 65 60 84 S9 29.72F  
MARSHALL FAIR 67 67 100 SE7 29.73S  
JACKSON FAIR 61 59 93 SE7 29.75F  
BENTON HARBOR CLOUDY 67 60 78 S6 29.68R  
STURGIS CLOUDY 71 63 75 S12 29.72S  
COLDWATER MOCLDY 69 63 81 S9 29.73F  
HILLSDALE FAIR 63 59 87 SE6 29.76F  

 
   
..OTHER LOCATIONS
 
 
 
CITY SKY/WX TMP DP RH WIND PRES REMARKS  
SAINT LOUIS MO MOCLDY 66 61 84 S12 29.68F  
CAPE GIRARDEAU RAIN 66 62 87 S14G21 29.80R  
MILWAUKEE WI LGT RAIN 44 41 89 CALM 29.62F VSB 1  
NASHVILLE TN MOCLDY 71 60 68 S8 29.90F  

 
 
 
 
CLICK HERE TO GO TO PREVIOUS BULLETINS.

The Nexlab IN Page Main Text Page